Content
SEND FEEDBACK

Daily
Averages
Monthly
Summary
United States of America

GREENSBURG, INDIANA


Home > North America > United States > Indiana
Elevation: 289 meters     Latitude: 39 20N     Longitude: 085 28W

WEATHER
 
SELECT A DAY
Number of Records: 173,019;   Date Range: 10/15/98 - 8/28/14
 
SHARE

PRINT THIS DATA

[ ← Previous Day ]
WEATHER ALMANAC - 3 JANUARY, 2014
[ Next Day → ]
[ °F ]   °C
Weather ElementAverageHighLow
Temperature-15.1 °C-8.9 °C (8:53 pm)-21.7 °C (6:53 am)
Dewpoint-19.5 °C-13.9 °C (11:53 pm)-25 °C (6:53 am)
Humidity70.2 %87 % (4:53 am)54 % (2:53 pm)
Barometer1029.1 hPa1033.5 hPa (8:53 am)1022 hPa (11:53 pm)
Wind Speed11.4 km/h29.6 km/h (9:53 pm)
Weather ElementAverage
Visibility13 km
Wind DirectionESE (120.4 °)

Weather ElementTotal
Precipitation---
Heating Degree Days33.7 (Base 18.3)
Averaged from 24 records on 3 January, 2014
WEATHER CONDITIONS BREAKOUT
WIND DIRECTION BREAKOUT
WEATHER BY HOUR - 3 JANUARY, 2014
[ °F ]   °C
Local TimeTemperatureDewpointHumidityBarometerVisibilityWind DirectionWind SpeedGust SpeedPrecipitationEventsConditions
1:53 AM-15 °C-20 °C66 %1029.5 hPa16.1 kmNW (310°)9.3 km/hClear
2:53 AM-18.3 °C-21.7 °C75 %1030.5 hPa16.1 kmNW (320°)9.3 km/hClear
3:53 AM-17.8 °C-20.6 °C79 %1031.2 hPa16.1 kmCalmClear
4:53 AM-21.1 °C-22.8 °C87 %1031.8 hPa16.1 kmWNW (300°)9.3 km/hClear
5:53 AM-20 °C-22.8 °C79 %1032.2 hPa16.1 kmCalmClear
6:53 AM-21.7 °C-25 °C75 %1032.5 hPa16.1 kmCalmClear
7:53 AM-20 °C-23.9 °C72 %1033.2 hPa14.5 kmCalmClear
8:08 AM-20.6 °C-23.9 °C76 %1031.2 hPa2.9 kmCalmHaze
8:24 AM-20 °C-22.8 °C79 %1031.2 hPa0.8 kmCalmHaze
8:34 AM-20 °C-23.9 °C72 %1031.5 hPa0.3 kmCalmHaze
8:53 AM-21.1 °C-25 °C72 %1033.5 hPa1.3 kmENE (70°)5.6 km/hHaze
8:55 AM-21.1 °C-24.4 °C75 %1031.5 hPa4 kmENE (70°)5.6 km/hHaze
9:02 AM-21.1 °C-23.9 °C79 %1031.5 hPa14.5 kmENE (70°)5.6 km/hClear
1:53 PM-11.1 °C-16.7 °C64 %1030.1 hPa16.1 kmSSW (200°)7.4 km/hClear
2:53 PM-9.4 °C-17.2 °C54 %1029.1 hPa16.1 kmSSE (160°)22.2 km/hClear
3:53 PM-9.4 °C-15.6 °C61 %1028.8 hPa16.1 kmSSE (150°)16.7 km/hClear
4:53 PM-9.4 °C-15 °C64 %1028.1 hPa16.1 kmSSE (150°)18.5 km/hPartly Cloudy
5:53 PM-10 °C-15.6 °C64 %1027.1 hPa16.1 kmSE (140°)16.7 km/hClear
6:53 PM-10 °C-15.6 °C64 %1026.8 hPa16.1 kmSE (140°)16.7 km/hClear
7:53 PM-9.4 °C-15 °C64 %1025.7 hPa16.1 kmSSE (150°)22.2 km/hClear
8:53 PM-8.9 °C-14.4 °C65 %1024.7 hPa16.1 kmSSE (160°)27.8 km/hClear
9:53 PM-8.9 °C-14.4 °C65 %1023.4 hPa16.1 kmSSE (160°)29.6 km/hClear
10:53 PM-8.9 °C-14.4 °C65 %1022.7 hPa16.1 kmSouth (170°)29.6 km/hClear
11:53 PM-8.9 °C-13.9 °C68 %1022 hPa16.1 kmSouth (170°)22.2 km/hClear
Hourly data recorded from KGEZ, located 0 kilometers away from Greensburg, Indiana







STORIES FROM OUR PARTNERS